This is the latest recevied weather packets stored in our database for station/object SP1BMW-13. If no packets are shown the sender has not sent any weather packets the latest 10 day(s).
| Time | Temp. | Humidity | Pressure | Rain* | Wind** | Luminosity | Snow |
|---|---|---|---|---|---|---|---|
| 1777538821 | 13.89° C | 43% | 1030.7 hPa | 0 mm | 1.79 m/s, 300° | 310 W/m² | - |
| 1777538761 | 13.89° C | 43% | 1030.5 hPa | 0 mm | 1.79 m/s, 266° | 308 W/m² | - |
| 1777538701 | 13.89° C | 42% | 1030.6 hPa | 0 mm | 0.89 m/s, 334° | 309 W/m² | - |
| 1777538641 | 13.89° C | 42% | 1030.6 hPa | 0 mm | 2.68 m/s, 324° | 310 W/m² | - |
| 1777538581 | 13.89° C | 42% | 1030.7 hPa | 0 mm | 0.89 m/s, 301° | 305 W/m² | - |
| 1777538521 | 13.89° C | 43% | 1030.7 hPa | 0 mm | 2.68 m/s, 280° | 310 W/m² | - |
| 1777538461 | 13.89° C | 43% | 1030.7 hPa | 0 mm | 1.34 m/s, 350° | 309 W/m² | - |
| 1777538401 | 13.89° C | 42% | 1030.7 hPa | 0 mm | 2.68 m/s, 254° | 315 W/m² | - |
| 1777538341 | 13.89° C | 43% | 1030.7 hPa | 0 mm | 2.24 m/s, 295° | 313 W/m² | - |
| 1777538281 | 13.89° C | 42% | 1030.6 hPa | 0 mm | 2.24 m/s, 294° | 301 W/m² | - |
| 1777538221 | 14.44° C | 42% | 1030.8 hPa | 0 mm | 2.24 m/s, 339° | 286 W/m² | - |
| 1777538161 | 14.44° C | 42% | 1030.6 hPa | 0 mm | 2.68 m/s, 302° | 283 W/m² | - |
| 1777538101 | 14.44° C | 43% | 1030.7 hPa | 0 mm | 1.79 m/s, 301° | 285 W/m² | - |
| 1777538041 | 14.44° C | 42% | 1030.6 hPa | 0 mm | 1.79 m/s, 350° | 294 W/m² | - |
| 1777537981 | 14.44° C | 42% | 1030.8 hPa | 0 mm | 1.34 m/s, 258° | 311 W/m² | - |
| 1777537921 | 14.44° C | 42% | 1030.8 hPa | 0 mm | 1.79 m/s, 299° | 332 W/m² | - |
| 1777537861 | 14.44° C | 42% | 1030.7 hPa | 0 mm | 1.79 m/s, 265° | 325 W/m² | - |
| 1777537801 | 14.44° C | 41% | 1030.8 hPa | 0 mm | 0.45 m/s, 256° | 345 W/m² | - |
| 1777537741 | 14.44° C | 42% | 1030.7 hPa | 0 mm | 1.79 m/s, 315° | 335 W/m² | - |
| 1777537681 | 14.44° C | 43% | 1030.8 hPa | 0 mm | 0.45 m/s, 329° | 325 W/m² | - |
| 1777537621 | 14.44° C | 43% | 1030.8 hPa | 0 mm | 0.89 m/s, 322° | 321 W/m² | - |
| 1777537561 | 14.44° C | 41% | 1030.8 hPa | 0 mm | 2.24 m/s, 225° | 329 W/m² | - |
| 1777537501 | 14.44° C | 43% | 1030.7 hPa | 0 mm | 1.79 m/s, 294° | 344 W/m² | - |
| 1777537441 | 14.44° C | 43% | 1030.8 hPa | 0 mm | 1.79 m/s, 306° | 331 W/m² | - |
| 1777537381 | 14.44° C | 42% | 1030.9 hPa | 0 mm | 2.68 m/s, 305° | 351 W/m² | - |
* Rain latest hour (hover to see other rain measurements)
** Current wind speed in m/s (hover to see current wind gust speed)